Weather History for KCMX - February, 2013

Change the Weather History Date:

Sunday, February 24, 2013

  Actual Average Record
Temperature  
Mean Temperature 26 °F -  
Max Temperature 28 °F - - ()
Min Temperature 23 °F - - ()
Degree Days  
Heating Degree Days 40    
Moisture  
Dew Point 22 °F    
Average Humidity 87    
Maximum Humidity 100    
Minimum Humidity 72    
Precipitation  
Precipitation 0.02 in - - ()
Sea Level Pressure  
Sea Level Pressure 29.98 in    
Wind  
Wind Speed 5 mph (NW)    
Max Wind Speed 12 mph    
Max Gust Speed -    
Visibility 7 miles    
Events Fog , Snow    
T = Trace of Precipitation, MM = Missing Value Source: NWS Daily Summary

Daily Weather History Graph

Daily Weather History Graph

Search for Another Location

Airport or City:

Trip Planner

Search our weather history database for the weather conditions in past years. The results will help you decide how hot, cold, wet, or windy it might be!

Date:

Astronomy

Feb. 24, 2013 Rise Set
Actual Time 7:42 AM EST 6:32 PM EST
Civil Twilight 7:11 AM EST 7:03 PM EST
Nautical Twilight 6:36 AM EST 7:38 PM EST
Astronomical Twilight 6:01 AM EST 8:13 PM EST
Moon 5:43 PM EST (2/24) 6:41 AM EST (2/24)
Length of Visible Light 11h 51m
Length of Day
10h 49m
Waxing Gibbous, 99% of the Moon is Illuminated
Feb 24
Waxing Gibbous
Feb 25
Full
Mar 4
Last Quarter
Mar 11
New
Mar 19
First Quarter

Hourly Weather History & Observations

Time (EST) Temp. Windchill Dew Point Humidity Pressure Visibility Wind Dir Wind Speed Gust Speed Precip Events Conditions
12:53 AM 24.1 °F 18.2 °F 21.9 °F 91% 29.89 in 10.0 mi NW 4.6 mph - N/A   Overcast
1:53 AM 25.0 °F 19.3 °F 21.9 °F 88% 29.91 in 10.0 mi NNW 4.6 mph - N/A   Overcast
2:09 AM 24.8 °F 17.9 °F 21.2 °F 86% 29.86 in 10.0 mi NW 5.8 mph - N/A   Overcast
2:22 AM 24.8 °F 17.9 °F 21.2 °F 86% 29.86 in 10.0 mi NW 5.8 mph - N/A   Overcast
2:53 AM 25.0 °F 19.3 °F 21.9 °F 88% 29.92 in 10.0 mi West 4.6 mph - N/A   Overcast
3:02 AM 24.8 °F 19.1 °F 21.2 °F 86% 29.87 in 10.0 mi West 4.6 mph - N/A   Overcast
3:36 AM 24.8 °F 16.9 °F 21.2 °F 86% 29.87 in 10.0 mi West 6.9 mph - N/A   Overcast
3:53 AM 25.0 °F 17.1 °F 21.9 °F 88% 29.93 in 10.0 mi West 6.9 mph - N/A   Overcast
4:05 AM 24.8 °F 16.9 °F 23.0 °F 93% 29.88 in 5.0 mi West 6.9 mph - 0.00 in Snow Light Snow
4:19 AM 24.8 °F 14.6 °F 23.0 °F 93% 29.88 in 2.0 mi NW 10.4 mph - 0.00 in Snow Light Snow
4:27 AM 24.8 °F 14.6 °F 23.0 °F 93% 29.88 in 1.2 mi NW 10.4 mph - 0.00 in Snow Light Snow
4:37 AM 26.6 °F 18.2 °F 24.8 °F 93% 29.89 in 0.8 mi NW 8.1 mph - 0.00 in Snow Light Snow
4:53 AM 26.1 °F 15.6 °F 24.1 °F 92% 29.94 in 0.5 mi NW 11.5 mph - 0.01 in Fog , Snow Light Snow
4:59 AM 26.6 °F 18.2 °F 24.8 °F 93% 29.89 in 1.0 mi NNW 8.1 mph - 0.00 in Snow Light Snow
5:09 AM 26.6 °F 21.2 °F 24.8 °F 93% 29.89 in 3.0 mi NNW 4.6 mph - 0.00 in Snow Light Snow
5:53 AM 26.1 °F 21.9 °F 24.1 °F 92% 29.96 in 5.0 mi North 3.5 mph - 0.00 in Snow Light Snow
6:48 AM 26.6 °F - 23.0 °F 86% 29.93 in 5.0 mi Calm Calm - 0.00 in Snow Light Snow
6:53 AM 26.1 °F - 23.0 °F 88% 29.98 in 5.0 mi Calm Calm - 0.00 in   Overcast
7:27 AM 24.8 °F - 24.8 °F 100% 29.94 in 5.0 mi Calm Calm - 0.00 in Snow Light Snow
7:45 AM 24.8 °F 20.5 °F 24.8 °F 100% 29.95 in 2.0 mi WNW 3.5 mph - 0.01 in Snow Light Snow
7:53 AM 25.0 °F - 24.1 °F 96% 30.00 in 2.0 mi Calm Calm - 0.01 in Snow Light Snow
8:08 AM 26.6 °F 21.2 °F 23.0 °F 86% 29.95 in 4.0 mi North 4.6 mph - 0.00 in   Overcast
8:15 AM 26.6 °F 21.2 °F 23.0 °F 86% 29.96 in 6.0 mi North 4.6 mph - 0.00 in   Overcast
8:28 AM 26.6 °F 20.0 °F 23.0 °F 86% 29.96 in 8.0 mi North 5.8 mph - 0.00 in   Overcast
8:53 AM 26.1 °F 19.4 °F 23.0 °F 88% 30.02 in 7.0 mi NNW 5.8 mph - 0.00 in   Overcast
9:53 AM 26.1 °F 19.4 °F 21.9 °F 84% 30.04 in 5.0 mi NNW 5.8 mph - N/A   Overcast
10:53 AM 27.0 °F 21.6 °F 21.9 °F 81% 30.05 in 9.0 mi North 4.6 mph - 0.00 in   Overcast
11:53 AM 28.0 °F 22.8 °F 21.0 °F 75% 30.06 in 10.0 mi North 4.6 mph - N/A   Overcast
12:53 PM 28.0 °F - 19.9 °F 72% 30.06 in 10.0 mi Calm Calm - N/A   Overcast
1:53 PM 28.0 °F 20.8 °F 21.0 °F 75% 30.06 in 10.0 mi WNW 6.9 mph - N/A   Overcast
2:53 PM 27.0 °F 16.7 °F 21.0 °F 78% 30.06 in 10.0 mi NW 11.5 mph - N/A   Overcast
3:53 PM 27.0 °F 18.7 °F 19.9 °F 75% 30.08 in 10.0 mi NW 8.1 mph - N/A   Overcast
4:53 PM 27.0 °F 19.5 °F 21.0 °F 78% 30.09 in 10.0 mi WNW 6.9 mph - N/A   Overcast
5:53 PM 27.0 °F 20.5 °F 21.0 °F 78% 30.09 in 10.0 mi West 5.8 mph - N/A   Overcast
6:53 PM 25.0 °F 20.7 °F 21.0 °F 85% 30.09 in 10.0 mi NW 3.5 mph - N/A   Overcast
7:10 PM 24.8 °F 20.5 °F 21.2 °F 86% 30.04 in 10.0 mi WNW 3.5 mph - N/A   Scattered Clouds
7:38 PM 24.8 °F - 21.2 °F 86% 30.05 in 10.0 mi Calm Calm - N/A   Mostly Cloudy
7:53 PM 24.1 °F - 21.0 °F 88% 30.11 in 10.0 mi Calm Calm - N/A   Overcast
8:53 PM 23.0 °F - 21.0 °F 92% 30.11 in 10.0 mi Calm Calm - N/A   Overcast
9:53 PM 25.0 °F - 21.0 °F 85% 30.11 in 10.0 mi Calm Calm - N/A   Overcast
10:53 PM 24.1 °F - 21.0 °F 88% 30.10 in 10.0 mi Calm Calm - N/A   Overcast
11:53 PM 24.1 °F - 21.0 °F 88% 30.10 in 10.0 mi Calm Calm - N/A   Overcast